| time (UTC) | temp F | wind direction | speed MPH | gust MPH | rain 1hr in | rain 24hr in | rain mn in | humidity % | barometer mb |
| 20260831230133 | 85 | 235 | 1.0 | 1.0 | 0.00 | 0.00 | 0.00 | 54 | 1010.1 |
| 20260831225627 | 85 | 227 | 0.0 | 1.0 | 0.00 | 0.00 | 0.00 | 56 | 1009.8 |
| 20260831225122 | 85 | 228 | 0.0 | 0.0 | 0.00 | 0.00 | 0.00 | 52 | 1010.0 |
| 20260831224618 | 85 | 228 | 0.0 | 0.0 | 0.00 | 0.00 | 0.00 | 53 | 1010.0 |
| 20260831224113 | 85 | 259 | 1.0 | 2.0 | 0.00 | 0.00 | 0.00 | 50 | 1009.9 |
| 20260831223608 | 85 | 232 | 1.0 | 1.0 | 0.00 | 0.00 | 0.00 | 50 | 1009.9 |
| 20260831223104 | 85 | 236 | 1.0 | 1.0 | 0.00 | 0.00 | 0.00 | 50 | 1010.0 |
| 20260831222600 | 85 | 231 | 0.0 | 1.0 | 0.00 | 0.00 | 0.00 | 48 | 1009.9 |
| 20260831222100 | 86 | 246 | 1.0 | 1.0 | 0.00 | 0.00 | 0.00 | 46 | 1009.8 |
| 20260831221556 | 86 | 276 | 3.0 | 3.0 | 0.00 | 0.00 | 0.00 | 46 | 1009.9 |
| 20260831221050 | 86 | 232 | 1.0 | 1.0 | 0.00 | 0.00 | 0.00 | 49 | 1010.0 |
| 20260831220550 | 86 | 256 | 2.0 | 2.0 | 0.00 | 0.00 | 0.00 | 46 | 1010.0 |
| 20260831220046 | 86 | 232 | 1.0 | 1.0 | 0.00 | 0.00 | 0.00 | 48 | 1009.9 |
| 20260831215542 | 86 | 238 | 1.0 | 1.0 | 0.00 | 0.00 | 0.00 | 50 | 1009.6 |
| 20260831215037 | 86 | 267 | 0.0 | 1.0 | 0.00 | 0.00 | 0.00 | 49 | 1010.0 |
| 20260831214535 | 86 | 242 | 1.0 | 1.0 | 0.00 | 0.00 | 0.00 | 46 | 1009.8 |
| 20260831214030 | 85 | 246 | 1.0 | 2.0 | 0.00 | 0.00 | 0.00 | 48 | 1010.0 |
| 20260831213527 | 85 | 247 | 1.0 | 1.0 | 0.00 | 0.00 | 0.00 | 48 | 1009.9 |
| 20260831213022 | 86 | 238 | 0.0 | 1.0 | 0.00 | 0.00 | 0.00 | 49 | 1009.6 |
| 20260831212518 | 86 | 254 | 2.0 | 2.0 | 0.00 | 0.00 | 0.00 | 47 | 1009.6 |
| 20260831212013 | 86 | 241 | 0.0 | 1.0 | 0.00 | 0.00 | 0.00 | 48 | 1009.8 |
| 20260831211508 | 86 | 244 | 0.0 | 1.0 | 0.00 | 0.00 | 0.00 | 50 | 1010.0 |
| 20260831211007 | 85 | 242 | 0.0 | 0.0 | 0.00 | 0.00 | 0.00 | 49 | 1009.6 |
| 20260831210502 | 85 | 266 | 2.0 | 2.0 | 0.00 | 0.00 | 0.00 | 47 | 1009.9 |
| 20260831205958 | 86 | 247 | 1.0 | 1.0 | 0.00 | 0.00 | 0.00 | 48 | 1009.6 |
| 20260831205453 | 86 | 246 | 0.0 | 0.0 | 0.00 | 0.00 | 0.00 | 48 | 1009.5 |
| 20260831204949 | 86 | 8 | 5.0 | 6.0 | 0.00 | 0.00 | 0.00 | 46 | 1009.6 |
| 20260831204449 | 86 | 13 | 2.0 | 2.0 | 0.00 | 0.00 | 0.00 | 43 | 1009.8 |
| 20260831203947 | 86 | 16 | 3.0 | 3.0 | 0.00 | 0.00 | 0.00 | 48 | 1009.6 |
| 20260831203442 | 85 | 57 | 1.0 | 2.0 | 0.00 | 0.00 | 0.00 | 45 | 1009.8 |
| 20260831202940 | 86 | 79 | 1.0 | 2.0 | 0.00 | 0.00 | 0.00 | 48 | 1009.4 |
| 20260831202436 | 86 | 23 | 5.0 | 6.0 | 0.00 | 0.00 | 0.00 | 42 | 1009.8 |
| 20260831201929 | 86 | 329 | 2.0 | 2.0 | 0.00 | 0.00 | 0.00 | 47 | 1009.6 |
| 20260831201427 | 87 | 349 | 2.0 | 3.0 | 0.00 | 0.00 | 0.00 | 46 | 1009.8 |
| 20260831200919 | 86 | 240 | 0.0 | 1.0 | 0.00 | 0.00 | 0.00 | 44 | 1009.8 |
| 20260831200414 | 86 | 8 | 2.0 | 3.0 | 0.00 | 0.00 | 0.00 | 42 | 1009.6 |
| 20260831195913 | 86 | 13 | 2.0 | 5.0 | 0.00 | 0.00 | 0.00 | 46 | 1009.8 |
| 20260831195409 | 86 | 13 | 3.0 | 3.0 | 0.00 | 0.00 | 0.00 | 52 | 1009.6 |
| 20260831194904 | 86 | 22 | 2.0 | 2.0 | 0.00 | 0.00 | 0.00 | 50 | 1009.5 |
| 20260831194400 | 86 | 58 | 3.0 | 5.0 | 0.00 | 0.00 | 0.00 | 47 | 1009.5 |
| 20260831193859 | 86 | 359 | 3.0 | 3.0 | 0.00 | 0.00 | 0.00 | 50 | 1009.3 |
| 20260831193354 | 86 | 248 | 1.0 | 1.0 | 0.00 | 0.00 | 0.00 | 52 | 1009.3 |
| 20260831192849 | 85 | 324 | 3.0 | 3.0 | 0.00 | 0.00 | 0.00 | 58 | 1009.3 |
| 20260831192344 | 85 | 349 | 4.0 | 5.0 | 0.00 | 0.00 | 0.00 | 55 | 1009.4 |
| 20260831191840 | 85 | 31 | 3.0 | 5.0 | 0.00 | 0.00 | 0.00 | 57 | 1009.4 |
| 20260831191336 | 85 | 248 | 2.0 | 2.0 | 0.00 | 0.00 | 0.00 | 62 | 1009.5 |
| 20260831190832 | 84 | 226 | 1.0 | 1.0 | 0.00 | 0.00 | 0.00 | 60 | 1009.5 |
| 20260831190331 | 85 | 259 | 1.0 | 2.0 | 0.00 | 0.00 | 0.00 | 63 | 1009.8 |
| 20260831185831 | 85 | 358 | 2.0 | 2.0 | 0.00 | 0.00 | 0.00 | 61 | 1009.8 |
| 20260831185326 | 85 | 263 | 2.0 | 2.0 | 0.00 | 0.00 | 0.00 | 62 | 1009.5 |
| 20260831184825 | 84 | 257 | 1.0 | 1.0 | 0.00 | 0.00 | 0.00 | 59 | 1009.5 |
| 20260831184321 | 84 | 239 | 2.0 | 2.0 | 0.00 | 0.00 | 0.00 | 61 | 1009.3 |
| 20260831183816 | 84 | 238 | 1.0 | 2.0 | 0.00 | 0.00 | 0.00 | 65 | 1009.4 |
| 20260831183315 | 84 | 308 | 1.0 | 2.0 | 0.00 | 0.00 | 0.00 | 64 | 1009.5 |
| 20260831182815 | 84 | 290 | 2.0 | 2.0 | 0.00 | 0.00 | 0.00 | 64 | 1009.3 |
| 20260831182310 | 83 | 31 | 3.0 | 5.0 | 0.00 | 0.00 | 0.00 | 64 | 1009.4 |
| 20260831181805 | 83 | 11 | 3.0 | 5.0 | 0.00 | 0.00 | 0.00 | 65 | 1009.4 |
| 20260831181305 | 83 | 26 | 3.0 | 3.0 | 0.00 | 0.00 | 0.00 | 64 | 1009.4 |
| 20260831180801 | 83 | 73 | 3.0 | 3.0 | 0.00 | 0.00 | 0.00 | 66 | 1009.4 |
| 20260831180255 | 83 | 294 | 3.0 | 3.0 | 0.00 | 0.00 | 0.00 | 68 | 1009.5 |
| 20260831175754 | 82 | 274 | 2.0 | 2.0 | 0.00 | 0.00 | 0.00 | 69 | 1009.6 |
| 20260831175251 | 82 | 246 | 1.0 | 2.0 | 0.00 | 0.00 | 0.00 | 74 | 1009.9 |
| 20260831174746 | 82 | 247 | 1.0 | 1.0 | 0.00 | 0.00 | 0.00 | 70 | 1010.0 |
| 20260831174242 | 82 | 38 | 1.0 | 2.0 | 0.00 | 0.00 | 0.00 | 70 | 1009.9 |
| 20260831173741 | 82 | 270 | 3.0 | 3.0 | 0.00 | 0.00 | 0.00 | 72 | 1009.9 |
| 20260831173235 | 81 | 22 | 3.0 | 3.0 | 0.00 | 0.00 | 0.00 | 75 | 1009.9 |
| 20260831172730 | 81 | 235 | 1.0 | 1.0 | 0.00 | 0.00 | 0.00 | 71 | 1009.8 |
| 20260831172226 | 81 | 286 | 3.0 | 5.0 | 0.00 | 0.00 | 0.00 | 74 | 1009.6 |
| 20260831171720 | 81 | 31 | 6.0 | 7.0 | 0.00 | 0.00 | 0.00 | 75 | 1009.8 |
| 20260831171218 | 80 | 33 | 2.0 | 6.0 | 0.00 | 0.00 | 0.00 | 78 | 1009.9 |
| 20260831170714 | 80 | 231 | 0.0 | 1.0 | 0.00 | 0.00 | 0.00 | 75 | 1010.0 |
| 20260831170210 | 80 | 256 | 1.0 | 2.0 | 0.00 | 0.00 | 0.00 | 76 | 1009.8 |
| 20260831165706 | 80 | 61 | 3.0 | 3.0 | 0.00 | 0.00 | 0.00 | 77 | 1009.9 |
| 20260831165202 | 80 | 241 | 1.0 | 2.0 | 0.00 | 0.00 | 0.00 | 77 | 1009.8 |
| 20260831164658 | 80 | 16 | 3.0 | 5.0 | 0.00 | 0.00 | 0.00 | 76 | 1009.9 |
| 20260831164154 | 79 | 17 | 3.0 | 3.0 | 0.00 | 0.00 | 0.00 | 78 | 1009.9 |
| 20260831163649 | 79 | 20 | 2.0 | 5.0 | 0.00 | 0.00 | 0.00 | 78 | 1009.9 |
| 20260831163145 | 79 | 256 | 1.0 | 1.0 | 0.00 | 0.00 | 0.00 | 78 | 1009.8 |
| 20260831162643 | 79 | 265 | 1.0 | 1.0 | 0.00 | 0.00 | 0.00 | 78 | 1009.8 |
| 20260831162142 | 79 | 263 | 1.0 | 1.0 | 0.00 | 0.00 | 0.00 | 82 | 1009.9 |
| 20260831161637 | 79 | 346 | 2.0 | 2.0 | 0.00 | 0.00 | 0.00 | 82 | 1009.9 |
| 20260831161134 | 78 | 20 | 3.0 | 3.0 | 0.00 | 0.00 | 0.00 | 81 | 1009.8 |
| 20260831160633 | 78 | 8 | 4.0 | 5.0 | 0.00 | 0.00 | 0.00 | 83 | 1009.9 |
| 20260831160128 | 78 | 358 | 3.0 | 3.0 | 0.00 | 0.00 | 0.00 | 81 | 1009.6 |
| 20260831155628 | 78 | 33 | 2.0 | 3.0 | 0.00 | 0.00 | 0.00 | 84 | 1009.6 |
| 20260831155123 | 78 | 257 | 2.0 | 3.0 | 0.00 | 0.00 | 0.00 | 84 | 1009.6 |
| 20260831154619 | 79 | 33 | 3.0 | 3.0 | 0.00 | 0.00 | 0.00 | 85 | 1009.8 |
| 20260831154114 | 78 | 314 | 3.0 | 3.0 | 0.00 | 0.00 | 0.00 | 87 | 1009.5 |
| 20260831153613 | 78 | 51 | 5.0 | 7.0 | 0.00 | 0.00 | 0.00 | 87 | 1009.4 |
| 20260831153110 | 78 | 350 | 3.0 | 3.0 | 0.00 | 0.00 | 0.00 | 87 | 1009.3 |
| 20260831152605 | 78 | 338 | 2.0 | 2.0 | 0.00 | 0.00 | 0.00 | 87 | 1009.2 |
| 20260831152101 | 78 | 350 | 3.0 | 6.0 | 0.00 | 0.00 | 0.00 | 88 | 1009.0 |
| 20260831151600 | 78 | 37 | 4.0 | 5.0 | 0.00 | 0.00 | 0.00 | 87 | 1009.1 |
| 20260831151055 | 78 | 11 | 3.0 | 5.0 | 0.00 | 0.00 | 0.00 | 88 | 1008.8 |
| 20260831150550 | 78 | 248 | 1.0 | 2.0 | 0.00 | 0.00 | 0.00 | 89 | 1008.8 |
| 20260831150046 | 77 | 243 | 1.0 | 1.0 | 0.00 | 0.00 | 0.00 | 89 | 1008.8 |
| 20260831145540 | 77 | 270 | 3.0 | 5.0 | 0.00 | 0.00 | 0.00 | 89 | 1008.9 |
| 20260831145036 | 77 | 261 | 1.0 | 2.0 | 0.00 | 0.00 | 0.00 | 90 | 1008.7 |
| 20260831144532 | 77 | 228 | 1.0 | 1.0 | 0.00 | 0.00 | 0.00 | 90 | 1008.5 |
| 20260831144027 | 77 | 259 | 1.0 | 1.0 | 0.00 | 0.00 | 0.00 | 90 | 1008.6 |
| 20260831143521 | 77 | 233 | 1.0 | 1.0 | 0.00 | 0.00 | 0.00 | 90 | 1008.5 |
| 20260831143017 | 76 | 238 | 1.0 | 1.0 | 0.00 | 0.00 | 0.00 | 91 | 1008.3 |
| 20260831142514 | 76 | 293 | 1.0 | 1.0 | 0.00 | 0.00 | 0.00 | 91 | 1008.4 |
| 20260831142008 | 75 | 218 | 0.0 | 1.0 | 0.00 | 0.00 | 0.00 | 92 | 1008.6 |
| 20260831141502 | 75 | 277 | 2.0 | 2.0 | 0.00 | 0.00 | 0.00 | 92 | 1008.3 |
| 20260831140957 | 75 | 229 | 1.0 | 1.0 | 0.00 | 0.00 | 0.00 | 92 | 1008.4 |
| 20260831140456 | 75 | 274 | 2.0 | 2.0 | 0.00 | 0.00 | 0.00 | 92 | 1008.3 |
| 20260831135955 | 74 | 229 | 0.0 | 0.0 | 0.00 | 0.00 | 0.00 | 93 | 1008.0 |
| 20260831135454 | 74 | 282 | 3.0 | 3.0 | 0.00 | 0.00 | 0.00 | 94 | 1007.9 |
| 20260831134949 | 73 | 251 | 1.0 | 1.0 | 0.00 | 0.00 | 0.00 | 95 | 1008.0 |
| 20260831134446 | 73 | 237 | 1.0 | 1.0 | 0.00 | 0.00 | 0.00 | 95 | 1008.0 |
| 20260831133945 | 73 | 268 | 1.0 | 2.0 | 0.00 | 0.00 | 0.00 | 96 | 1007.8 |
| 20260831133440 | 72 | 283 | 2.0 | 2.0 | 0.00 | 0.00 | 0.00 | 97 | 1007.9 |
| 20260831132935 | 72 | 272 | 1.0 | 2.0 | 0.00 | 0.00 | 0.00 | 97 | 1007.5 |
| 20260831132431 | 72 | 253 | 1.0 | 1.0 | 0.00 | 0.00 | 0.00 | 98 | 1007.7 |
| 20260831131930 | 72 | 221 | 0.0 | 1.0 | 0.00 | 0.00 | 0.00 | 98 | 1007.9 |
| 20260831131425 | 72 | 222 | 0.0 | 0.0 | 0.00 | 0.00 | 0.00 | 98 | 1007.9 |
| 20260831130921 | 71 | 221 | 0.0 | 0.0 | 0.00 | 0.00 | 0.00 | 98 | 1007.8 |
| 20260831130416 | 71 | 217 | 0.0 | 0.0 | 0.00 | 0.00 | 0.00 | 98 | 1007.6 |
| 20260831125915 | 71 | 219 | 0.0 | 0.0 | 0.00 | 0.00 | 0.00 | 98 | 1007.7 |
| 20260831125411 | 71 | 217 | 0.0 | 0.0 | 0.00 | 0.00 | 0.00 | 98 | 1007.6 |
| 20260831124906 | 71 | 220 | 0.0 | 1.0 | 0.00 | 0.00 | 0.00 | 98 | 1007.5 |
| 20260831124402 | 71 | 209 | 0.0 | 0.0 | 0.00 | 0.00 | 0.00 | 98 | 1007.4 |
| 20260831123857 | 70 | 208 | 0.0 | 0.0 | 0.00 | 0.00 | 0.00 | 98 | 1007.2 |
| 20260831123356 | 70 | 207 | 0.0 | 0.0 | 0.00 | 0.00 | 0.00 | 98 | 1007.3 |
| 20260831122856 | 70 | 206 | 0.0 | 0.0 | 0.00 | 0.00 | 0.00 | 98 | 1007.3 |
| 20260831122351 | 70 | 214 | 0.0 | 0.0 | 0.00 | 0.00 | 0.00 | 98 | 1007.2 |
| 20260831121846 | 70 | 217 | 0.0 | 0.0 | 0.00 | 0.00 | 0.00 | 98 | 1006.9 |
| 20260831121343 | 70 | 220 | 0.0 | 0.0 | 0.00 | 0.00 | 0.00 | 98 | 1006.9 |
| 20260831120838 | 70 | 214 | 0.0 | 0.0 | 0.00 | 0.00 | 0.00 | 98 | 1006.7 |
| 20260831120332 | 69 | 216 | 0.0 | 0.0 | 0.00 | 0.00 | 0.00 | 98 | 1006.8 |
| 20260831115827 | 70 | 209 | 0.0 | 0.0 | 0.00 | 0.00 | 0.00 | 98 | 1006.5 |
| 20260831115323 | 70 | 205 | 0.0 | 1.0 | 0.00 | 0.00 | 0.00 | 98 | 1006.4 |
| 20260831114817 | 70 | 207 | 0.0 | 1.0 | 0.00 | 0.00 | 0.00 | 98 | 1006.4 |
| 20260831114316 | 70 | 202 | 0.0 | 1.0 | 0.00 | 0.00 | 0.00 | 98 | 1006.5 |
| 20260831113812 | 70 | 207 | 0.0 | 0.0 | 0.00 | 0.00 | 0.00 | 98 | 1006.5 |
| 20260831113312 | 69 | 208 | 0.0 | 1.0 | 0.00 | 0.00 | 0.00 | 98 | 1006.6 |
| 20260831112806 | 69 | 208 | 0.0 | 0.0 | 0.00 | 0.00 | 0.00 | 98 | 1006.5 |
| 20260831112301 | 70 | 208 | 0.0 | 0.0 | 0.00 | 0.00 | 0.00 | 98 | 1006.5 |
| 20260831111756 | 70 | 208 | 0.0 | 0.0 | 0.00 | 0.00 | 0.00 | 98 | 1006.4 |
| 20260831111253 | 70 | 208 | 0.0 | 0.0 | 0.00 | 0.00 | 0.00 | 98 | 1006.2 |
| 20260831110748 | 70 | 208 | 0.0 | 0.0 | 0.00 | 0.00 | 0.00 | 98 | 1006.2 |
| 20260831110243 | 70 | 208 | 0.0 | 0.0 | 0.00 | 0.00 | 0.00 | 97 | 1006.3 |
| 20260831105741 | 69 | 208 | 0.0 | 0.0 | 0.00 | 0.00 | 0.00 | 97 | 1006.2 |
| 20260831105237 | 70 | 208 | 0.0 | 0.0 | 0.00 | 0.00 | 0.00 | 97 | 1006.0 |
| 20260831104732 | 70 | 212 | 0.0 | 0.0 | 0.00 | 0.00 | 0.00 | 97 | 1006.0 |
| 20260831104229 | 70 | 219 | 0.0 | 0.0 | 0.00 | 0.00 | 0.00 | 97 | 1006.0 |
| 20260831103729 | 70 | 208 | 0.0 | 0.0 | 0.00 | 0.00 | 0.00 | 97 | 1006.4 |
| 20260831103224 | 70 | 208 | 0.0 | 0.0 | 0.00 | 0.00 | 0.00 | 97 | 1006.3 |
| 20260831102724 | 71 | 207 | 0.0 | 0.0 | 0.00 | 0.00 | 0.00 | 97 | 1006.2 |
| 20260831102219 | 71 | 207 | 0.0 | 0.0 | 0.00 | 0.00 | 0.00 | 97 | 1006.2 |
| 20260831101714 | 71 | 205 | 0.0 | 0.0 | 0.00 | 0.00 | 0.00 | 97 | 1005.9 |
| 20260831101210 | 71 | 211 | 1.0 | 1.0 | 0.00 | 0.00 | 0.00 | 97 | 1005.8 |
| 20260831100706 | 71 | 207 | 0.0 | 0.0 | 0.00 | 0.00 | 0.00 | 97 | 1006.0 |
| 20260831100202 | 71 | 208 | 0.0 | 0.0 | 0.00 | 0.00 | 0.00 | 96 | 1005.9 |
| 20260831095700 | 71 | 208 | 0.0 | 0.0 | 0.00 | 0.00 | 0.00 | 96 | 1005.9 |
| 20260831095155 | 71 | 210 | 0.0 | 0.0 | 0.00 | 0.00 | 0.00 | 96 | 1005.8 |
| 20260831094650 | 71 | 213 | 0.0 | 0.0 | 0.00 | 0.00 | 0.00 | 96 | 1006.2 |
| 20260831094146 | 71 | 217 | 0.0 | 0.0 | 0.00 | 0.00 | 0.00 | 96 | 1006.0 |
| 20260831093642 | 71 | 200 | 0.0 | 1.0 | 0.00 | 0.00 | 0.00 | 96 | 1005.5 |
| 20260831093138 | 71 | 206 | 0.0 | 1.0 | 0.00 | 0.00 | 0.00 | 96 | 1005.6 |
| 20260831092634 | 71 | 207 | 0.0 | 0.0 | 0.00 | 0.00 | 0.00 | 95 | 1005.5 |
| 20260831092129 | 71 | 208 | 0.0 | 0.0 | 0.00 | 0.00 | 0.00 | 95 | 1005.6 |
| 20260831091628 | 71 | 206 | 0.0 | 0.0 | 0.00 | 0.00 | 0.00 | 95 | 1005.5 |
| 20260831091124 | 71 | 208 | 0.0 | 0.0 | 0.00 | 0.00 | 0.00 | 95 | 1005.7 |
| 20260831090619 | 71 | 206 | 0.0 | 0.0 | 0.00 | 0.00 | 0.00 | 95 | 1005.7 |
| 20260831090115 | 72 | 207 | 0.0 | 0.0 | 0.00 | 0.00 | 0.00 | 94 | 1005.7 |
| 20260831085610 | 72 | 207 | 0.0 | 0.0 | 0.00 | 0.00 | 0.00 | 94 | 1006.0 |
| 20260831085106 | 72 | 212 | 0.0 | 0.0 | 0.00 | 0.00 | 0.00 | 94 | 1006.0 |
| 20260831084602 | 72 | 196 | 1.0 | 1.0 | 0.00 | 0.00 | 0.00 | 94 | 1005.9 |
| 20260831084058 | 72 | 207 | 0.0 | 0.0 | 0.00 | 0.00 | 0.00 | 94 | 1005.7 |
| 20260831083554 | 72 | 209 | 0.0 | 0.0 | 0.00 | 0.00 | 0.00 | 93 | 1005.8 |
| 20260831083048 | 72 | 206 | 0.0 | 0.0 | 0.00 | 0.00 | 0.00 | 93 | 1005.5 |
| 20260831082547 | 73 | 205 | 1.0 | 1.0 | 0.00 | 0.00 | 0.00 | 93 | 1005.4 |
| 20260831082042 | 73 | 207 | 0.0 | 0.0 | 0.00 | 0.00 | 0.00 | 93 | 1005.3 |
| 20260831081538 | 73 | 205 | 0.0 | 1.0 | 0.00 | 0.00 | 0.00 | 93 | 1005.6 |
| 20260831081034 | 73 | 203 | 0.0 | 0.0 | 0.00 | 0.00 | 0.00 | 92 | 1005.5 |
| 20260831080534 | 73 | 196 | 0.0 | 1.0 | 0.00 | 0.00 | 0.00 | 92 | 1005.5 |
| 20260831080030 | 73 | 209 | 0.0 | 1.0 | 0.00 | 0.00 | 0.00 | 92 | 1005.4 |
| 20260831075525 | 73 | 208 | 0.0 | 0.0 | 0.00 | 0.00 | 0.00 | 92 | 1005.3 |
| 20260831075021 | 73 | 204 | 0.0 | 0.0 | 0.00 | 0.00 | 0.00 | 92 | 1005.4 |
| 20260831074520 | 73 | 204 | 1.0 | 1.0 | 0.00 | 0.00 | 0.00 | 92 | 1005.3 |
| 20260831074020 | 73 | 206 | 0.0 | 0.0 | 0.00 | 0.00 | 0.00 | 91 | 1005.5 |
| 20260831073515 | 73 | 199 | 1.0 | 1.0 | 0.00 | 0.00 | 0.00 | 91 | 1005.4 |
| 20260831073014 | 74 | 202 | 0.0 | 0.0 | 0.00 | 0.00 | 0.00 | 91 | 1005.4 |
| 20260831072510 | 74 | 205 | 1.0 | 1.0 | 0.00 | 0.00 | 0.00 | 91 | 1005.6 |
| 20260831072006 | 74 | 200 | 1.0 | 1.0 | 0.00 | 0.00 | 0.00 | 91 | 1005.6 |
| 20260831071505 | 74 | 208 | 0.0 | 1.0 | 0.00 | 0.00 | 0.00 | 91 | 1005.6 |
| 20260831071000 | 74 | 214 | 0.0 | 0.0 | 0.00 | 0.00 | 0.00 | 91 | 1005.8 |
| 20260831070458 | 74 | 206 | 0.0 | 0.0 | 0.00 | 0.00 | 0.00 | 91 | 1005.6 |
| 20260831065958 | 74 | 200 | 0.0 | 1.0 | 0.00 | 0.00 | 0.00 | 91 | 1005.7 |
| 20260831065456 | 74 | 205 | 1.0 | 1.0 | 0.00 | 0.00 | 0.00 | 91 | 1005.7 |
| 20260831064951 | 74 | 208 | 1.0 | 1.0 | 0.00 | 0.00 | 0.00 | 91 | 1005.4 |
| 20260831064447 | 74 | 205 | 1.0 | 2.0 | 0.00 | 0.00 | 0.00 | 91 | 1005.7 |
| 20260831063942 | 74 | 185 | 3.0 | 3.0 | 0.00 | 0.00 | 0.00 | 91 | 1005.5 |
| 20260831063437 | 74 | 199 | 1.0 | 2.0 | 0.00 | 0.00 | 0.00 | 90 | 1005.7 |
| 20260831062931 | 74 | 194 | 3.0 | 5.0 | 0.00 | 0.00 | 0.00 | 91 | 1005.8 |
| 20260831062429 | 74 | 199 | 1.0 | 1.0 | 0.00 | 0.00 | 0.00 | 91 | 1005.8 |
| 20260831061926 | 73 | 224 | 1.0 | 2.0 | 0.00 | 0.00 | 0.00 | 91 | 1006.0 |
| 20260831061425 | 73 | 216 | 2.0 | 2.0 | 0.00 | 0.00 | 0.00 | 91 | 1006.0 |
| 20260831060921 | 73 | 243 | 1.0 | 2.0 | 0.00 | 0.00 | 0.00 | 91 | 1006.0 |
| 20260831060416 | 73 | 205 | 2.0 | 3.0 | 0.00 | 0.00 | 0.00 | 91 | 1006.0 |
| 20260831055915 | 73 | 219 | 3.0 | 5.0 | 0.00 | 0.00 | 0.00 | 91 | 1005.9 |
| 20260831055410 | 73 | 199 | 1.0 | 2.0 | 0.00 | 0.00 | 0.00 | 91 | 1006.3 |
| 20260831054906 | 73 | 203 | 1.0 | 1.0 | 0.00 | 0.00 | 0.00 | 91 | 1006.2 |
| 20260831054400 | 73 | 196 | 1.0 | 1.0 | 0.00 | 0.00 | 0.00 | 91 | 1006.2 |
| 20260831053859 | 73 | 199 | 1.0 | 1.0 | 0.00 | 0.00 | 0.00 | 91 | 1006.3 |
| 20260831053358 | 73 | 207 | 1.0 | 1.0 | 0.00 | 0.00 | 0.00 | 91 | 1006.3 |
| 20260831052853 | 73 | 205 | 1.0 | 1.0 | 0.00 | 0.00 | 0.00 | 91 | 1006.0 |
| 20260831052352 | 73 | 204 | 1.0 | 1.0 | 0.00 | 0.00 | 0.00 | 91 | 1006.3 |
| 20260831051850 | 73 | 205 | 1.0 | 1.0 | 0.00 | 0.00 | 0.00 | 91 | 1006.5 |
| 20260831051349 | 74 | 201 | 2.0 | 2.0 | 0.00 | 0.00 | 0.00 | 90 | 1006.6 |
| 20260831050844 | 74 | 192 | 1.0 | 1.0 | 0.00 | 0.00 | 0.00 | 90 | 1006.6 |
| 20260831050343 | 74 | 201 | 1.0 | 1.0 | 0.00 | 0.00 | 0.00 | 90 | 1006.8 |
| 20260831045838 | 74 | 200 | 1.0 | 1.0 | 0.00 | 0.00 | 0.00 | 90 | 1006.6 |
| 20260831045332 | 74 | 198 | 0.0 | 0.0 | 0.00 | 0.00 | 0.00 | 89 | 1006.9 |
| 20260831044827 | 74 | 200 | 1.0 | 1.0 | 0.00 | 0.00 | 0.00 | 89 | 1006.9 |
| 20260831044322 | 74 | 208 | 1.0 | 1.0 | 0.00 | 0.00 | 0.00 | 89 | 1007.0 |
| 20260831043818 | 74 | 200 | 1.0 | 1.0 | 0.00 | 0.00 | 0.00 | 88 | 1007.2 |
| 20260831043317 | 75 | 200 | 0.0 | 0.0 | 0.00 | 0.00 | 0.00 | 88 | 1007.1 |
| 20260831042813 | 75 | 192 | 1.0 | 2.0 | 0.00 | 0.00 | 0.00 | 88 | 1007.2 |
| 20260831042312 | 75 | 200 | 1.0 | 1.0 | 0.00 | 0.00 | 0.00 | 87 | 1007.2 |
| 20260831041808 | 75 | 213 | 1.0 | 1.0 | 0.00 | 0.00 | 0.00 | 87 | 1007.2 |
| 20260831041307 | 75 | 197 | 1.0 | 2.0 | 0.00 | 0.00 | 0.00 | 87 | 1006.9 |
| 20260831040802 | 75 | 197 | 1.0 | 1.0 | 0.00 | 0.00 | 0.00 | 87 | 1007.1 |
| 20260831040301 | 75 | 203 | 0.0 | 1.0 | 0.00 | 0.00 | 0.00 | 86 | 1007.0 |
| 20260831035800 | 75 | 201 | 1.0 | 1.0 | 0.00 | 0.00 | 0.00 | 86 | 1007.0 |
| 20260831035258 | 75 | 198 | 1.0 | 1.0 | 0.00 | 0.00 | 0.00 | 86 | 1007.0 |
| 20260831034753 | 75 | 204 | 1.0 | 1.0 | 0.00 | 0.00 | 0.00 | 86 | 1007.0 |
| 20260831034248 | 76 | 213 | 2.0 | 2.0 | 0.00 | 0.00 | 0.00 | 85 | 1007.1 |
| 20260831033743 | 76 | 198 | 1.0 | 2.0 | 0.00 | 0.00 | 0.00 | 85 | 1006.8 |
| 20260831033243 | 76 | 201 | 0.0 | 1.0 | 0.00 | 0.00 | 0.00 | 85 | 1006.7 |
| 20260831032738 | 76 | 192 | 3.0 | 3.0 | 0.00 | 0.00 | 0.00 | 85 | 1007.1 |
| 20260831032233 | 76 | 200 | 2.0 | 2.0 | 0.00 | 0.00 | 0.00 | 84 | 1007.1 |
| 20260831031728 | 76 | 196 | 1.0 | 1.0 | 0.00 | 0.00 | 0.00 | 84 | 1006.9 |
| 20260831031223 | 76 | 199 | 1.0 | 1.0 | 0.00 | 0.00 | 0.00 | 84 | 1006.9 |
| 20260831030722 | 77 | 203 | 1.0 | 1.0 | 0.00 | 0.00 | 0.00 | 84 | 1006.9 |
| 20260831030221 | 77 | 203 | 1.0 | 1.0 | 0.00 | 0.00 | 0.00 | 84 | 1006.9 |
| 20260831025720 | 77 | 214 | 2.0 | 2.0 | 0.00 | 0.00 | 0.00 | 83 | 1006.9 |
| 20260831025214 | 77 | 204 | 1.0 | 1.0 | 0.00 | 0.00 | 0.00 | 83 | 1006.8 |
| 20260831024711 | 77 | 196 | 0.0 | 1.0 | 0.00 | 0.00 | 0.00 | 83 | 1006.8 |
| 20260831024209 | 77 | 189 | 1.0 | 2.0 | 0.00 | 0.00 | 0.00 | 83 | 1006.6 |
| 20260831023708 | 77 | 194 | 1.0 | 1.0 | 0.00 | 0.00 | 0.00 | 82 | 1006.6 |
| 20260831023208 | 78 | 194 | 3.0 | 3.0 | 0.00 | 0.00 | 0.00 | 81 | 1006.7 |
| 20260831022703 | 78 | 190 | 1.0 | 2.0 | 0.00 | 0.00 | 0.00 | 81 | 1006.5 |
| 20260831022157 | 78 | 194 | 4.0 | 5.0 | 0.00 | 0.00 | 0.00 | 80 | 1006.8 |
| 20260831021656 | 78 | 202 | 1.0 | 2.0 | 0.00 | 0.00 | 0.00 | 79 | 1006.9 |
| 20260831021152 | 79 | 211 | 2.0 | 3.0 | 0.00 | 0.00 | 0.00 | 78 | 1007.0 |
| 20260831020648 | 79 | 195 | 1.0 | 2.0 | 0.00 | 0.00 | 0.00 | 77 | 1006.6 |
| 20260831020148 | 79 | 194 | 0.0 | 1.0 | 0.00 | 0.00 | 0.00 | 78 | 1006.7 |
| 20260831015644 | 79 | 203 | 0.0 | 1.0 | 0.00 | 0.00 | 0.00 | 77 | 1006.6 |
| 20260831015143 | 80 | 202 | 1.0 | 2.0 | 0.00 | 0.00 | 0.00 | 76 | 1006.6 |
| 20260831014638 | 80 | 207 | 4.0 | 5.0 | 0.00 | 0.00 | 0.00 | 76 | 1006.6 |
| 20260831014133 | 80 | 204 | 1.0 | 1.0 | 0.00 | 0.00 | 0.00 | 77 | 1006.6 |
| 20260831013630 | 80 | 203 | 2.0 | 2.0 | 0.00 | 0.00 | 0.00 | 76 | 1006.6 |
| 20260831013129 | 80 | 210 | 1.0 | 1.0 | 0.00 | 0.00 | 0.00 | 77 | 1006.4 |
| 20260831012624 | 80 | 201 | 1.0 | 1.0 | 0.00 | 0.00 | 0.00 | 77 | 1006.5 |
| 20260831012119 | 79 | 211 | 2.0 | 2.0 | 0.00 | 0.00 | 0.00 | 79 | 1006.6 |
| 20260831011619 | 79 | 194 | 0.0 | 1.0 | 0.00 | 0.00 | 0.00 | 82 | 1006.4 |
| 20260831011114 | 79 | 208 | 0.0 | 0.0 | 0.00 | 0.00 | 0.00 | 83 | 1006.5 |
| 20260831010610 | 79 | 207 | 1.0 | 1.0 | 0.00 | 0.00 | 0.00 | 83 | 1006.4 |
| 20260831010106 | 79 | 208 | 0.0 | 1.0 | 0.00 | 0.00 | 0.00 | 84 | 1006.0 |
| 20260831005605 | 79 | 208 | 0.0 | 0.0 | 0.00 | 0.00 | 0.00 | 84 | 1006.0 |
| 20260831005100 | 80 | 208 | 0.0 | 0.0 | 0.00 | 0.00 | 0.00 | 83 | 1006.3 |
| 20260831004556 | 80 | 207 | 0.0 | 1.0 | 0.00 | 0.00 | 0.00 | 83 | 1006.0 |
| 20260831004052 | 81 | 209 | 0.0 | 0.0 | 0.00 | 0.00 | 0.00 | 82 | 1006.0 |
| 20260831003548 | 81 | 209 | 0.0 | 0.0 | 0.00 | 0.00 | 0.00 | 81 | 1006.0 |
| 20260831003043 | 82 | 208 | 0.0 | 0.0 | 0.00 | 0.00 | 0.00 | 80 | 1006.0 |
| 20260831002541 | 82 | 206 | 0.0 | 1.0 | 0.00 | 0.00 | 0.00 | 79 | 1006.0 |
| 20260831002037 | 82 | 209 | 0.0 | 0.0 | 0.00 | 0.00 | 0.00 | 78 | 1006.2 |
| 20260831001532 | 82 | 200 | 0.0 | 1.0 | 0.00 | 0.00 | 0.00 | 78 | 1006.0 |
| 20260831001029 | 82 | 216 | 1.0 | 1.0 | 0.00 | 0.00 | 0.00 | 78 | 1006.4 |
| 20260831000525 | 83 | 206 | 0.0 | 0.0 | 0.00 | 0.00 | 0.00 | 77 | 1006.2 |
| 20260831000024 | 83 | 200 | 0.0 | 0.0 | 0.00 | 0.00 | 0.00 | 77 | 1006.2 |
| 20260830235518 | 83 | 193 | 0.0 | 1.0 | 0.00 | 0.00 | 0.00 | 76 | 1006.2 |
| 20260830235013 | 83 | 198 | 2.0 | 2.0 | 0.00 | 0.00 | 0.00 | 76 | 1006.0 |
| 20260830234508 | 83 | 208 | 0.0 | 0.0 | 0.00 | 0.00 | 0.00 | 76 | 1005.8 |
| 20260830234003 | 83 | 209 | 1.0 | 1.0 | 0.00 | 0.00 | 0.00 | 76 | 1005.9 |
| 20260830233459 | 83 | 177 | 1.0 | 1.0 | 0.00 | 0.00 | 0.00 | 76 | 1005.8 |
| 20260830232954 | 83 | 196 | 1.0 | 1.0 | 0.00 | 0.00 | 0.00 | 76 | 1006.0 |
| 20260830232450 | 83 | 207 | 0.0 | 0.0 | 0.00 | 0.00 | 0.00 | 76 | 1006.0 |
| 20260830231947 | 83 | 214 | 0.0 | 0.0 | 0.00 | 0.00 | 0.00 | 77 | 1006.0 |
| 20260830231442 | 83 | 195 | 1.0 | 1.0 | 0.00 | 0.00 | 0.00 | 76 | 1006.0 |
| 20260830230941 | 83 | 194 | 0.0 | 0.0 | 0.00 | 0.00 | 0.00 | 75 | 1006.0 |
| 20260830230437 | 83 | 172 | 1.0 | 2.0 | 0.00 | 0.00 | 0.00 | 75 | 1005.9 |